This demonstration page uses our WeatherBlox Daily Observations layout. Learn more.

Left ArrowRight Arrow

34.02893, -84.19858

Hourly Observations for January 7, 2018

Temp ( °F °C ) Dew Point ( °F °C ) Humidity (%) Winds ( mph kmh ) Pressure ( in mb ) Visibility ( mi km ) Precip ( " mm )
12:53 am 00:53 Clear 19 -7.2 4 -15.6 51 51 Calm 30.54 1034 10 16 0.00 0.00
1:53 am 01:53 Clear 18 -7.8 4 -15.6 54 54 Calm 30.53 1034 10 16 0.00 0.00
2:53 am 02:53 Clear 21 -6.1 2 -16.7 43 43 ENE 3 6 30.53 1034 10 16 0.00 0.00
3:53 am 03:53 Clear 23 -5 3 -16.1 42 42 E 6 9 30.55 1035 10 16 0.00 0.00
4:53 am 04:53 Clear 22 -5.6 5 -15 48 48 E 5 7 30.55 1035 10 16 0.00 0.00
5:53 am 05:53 Clear 22 -5.6 5 -15 48 48 VRB 5 7 30.58 1036 10 16 0.00 0.00
6:53 am 06:53 Clear 21 -6.1 4 -15.6 47 47 VRB 5 7 30.60 1036 10 16 0.00 0.00
7:53 am 07:53 Sunny 21 -6.1 4 -15.6 47 47 VRB 6 9 30.61 1037 10 16 0.00 0.00
8:53 am 08:53 Sunny 23 -5 5 -15 46 46 VRB 5 7 30.63 1037 10 16 0.00 0.00
9:53 am 09:53 Sunny 25 -3.9 5 -15 42 42 VRB 5 7 30.63 1037 10 16 0.00 0.00
10:53 am 10:53 Sunny 29 -1.7 4 -15.6 34 34 VRB 6 9 30.63 1037 10 16 0.00 0.00
11:53 am 11:53 Sunny 30 -1.1 4 -15.6 33 33 ESE 10 17 30.59 1036 10 16 0.00 0.00
12:53 pm 12:53 Sunny 33 0.6 4 -15.6 29 29 E 8 13 30.55 1035 10 16 0.00 0.00
1:53 pm 13:53 Sunny 35 1.7 5 -15 28 28 VRB 3 6 30.52 1034 10 16 0.00 0.00
2:53 pm 14:53 Sunny 36 2.2 6 -14.4 28 28 VRB 6 9 30.49 1033 10 16 0.00 0.00
3:53 pm 15:53 Sunny 36 2.2 6 -14.4 28 28 E 10 17 30.48 1032 10 16 0.00 0.00
4:53 pm 16:53 Sunny 35 1.7 6 -14.4 29 29 ESE 6 9 30.48 1032 10 16 0.00 0.00
5:53 pm 17:53 Clear 34 1.1 7 -13.9 32 32 VRB 3 6 30.47 1032 10 16 0.00 0.00
6:53 pm 18:53 Clear 33 0.6 7 -13.9 33 33 VRB 5 7 30.48 1032 10 16 0.00 0.00
7:53 pm 19:53 Clear 31 -0.6 6 -14.4 35 35 E 3 6 30.50 1033 10 16 0.00 0.00
8:53 pm 20:53 Clear 30 -1.1 6 -14.4 36 36 E 5 7 30.49 1033 10 16 0.00 0.00
9:53 pm 21:53 Clear 29 -1.7 6 -14.4 38 38 E 8 13 30.48 1032 10 16 0.00 0.00
10:53 pm 22:53 Clear 29 -1.7 5 -15 36 36 E 6 9 30.45 1031 10 16 0.00 0.00
11:53 pm 23:53 Clear 29 -1.7 4 -15.6 34 34 E 5 7 30.45 1031 10 16 0.00 0.00

Powered by AerisWeather